Location: Plainartige
(45.6866°N, 1.7993°E)
Time: 10:32:03
(UTC+00:00)

Tiros 1 - Pass Details

Date: 05 June 2022
Orbit: 629 x 663 km, 48.4° (Epoch: 04 July)

Event Time Altitude Azimuth Distance (km) Brightness Sun altitude
Rises 21:01:37 0° 237° (WSW) 2,909 10.6 -11.6°
Reaches altitude 10° 21:03:57 10° 235° (SW) 2,002 9.7 -11.8°
Maximum altitude 21:08:30 65° 154° (SSE) 694 7.0 -12.3°
Drops below altitude 10° 21:13:04 10° 73° (ENE) 2,009 9.5 -12.8°
Sets 21:15:24 0° 70° (ENE) 2,920 10.3 -13.1°
